Orbital Elements
Epoch 2024 Mar. 31.0 TT = JDT 2460400.5
T 2020 Sept. 29.99800 TT Rudenko
q 3.1445634 (2000.0) P Q
n 0.09931030 Peri. 219.73581 +0.90354176 +0.09849861
a 4.6182047 Node 129.18739 -0.09767066 +0.99494407
e 0.3190940 Incl. 32.55028 -0.41722024 -0.01960414
P 9.92
>From 818 observations 2001 Oct. 23-2024 Feb. 12, mean residual 0".7.
|